User: anonymous   Login
Location: ?????
(31.8092°N, 35.2590°E)
Time: 20:09:56
(UTC+00:00)
Language:

Meteor 2-11 Rocket - Orbit

View from above orbital plane
View from above orbital plane
View from above satellite
View from above satellite

Ground track
Ground track

The orbit data is extracted from the following two-line orbital elements,

1 15100U 84072B   21270.56604263  .00000020  00000-0  49921-5 0  9994
2 15100  82.5327 337.9191 0010604 278.5484  81.4474 13.84450180881007
Epoch (UTC): 27 September 2021 13:35:06
Eccentricity: 0.0010604
inclination: 82.5327°
perigee height: 940 km
apogee height: 956 km
right ascension of ascending node: 337.9191°
argument of perigee: 278.5484°
revolutions per day: 13.84450180
mean anomaly at epoch: 81.4474°
orbit number at epoch: 88100

The dashed part of the orbit path shows where the satellite is in the earth's shadow,  

DLR